Location: Grums
(59.3529°N, 13.1129°E)
Time: 00:42:07
(UTC+01:00)

SEEDS - Pass Details

Date: 29 November 2021
Orbit: 584 x 600 km, 97.6° (Epoch: 27 January)

Event Time Altitude Azimuth Distance (km) Brightness Sun altitude
Rises 17:07:43 0° 216° (SW) 2,831 ? -12.6°
Reaches altitude 10° 17:10:47 10° 241° (WSW) 1,931 ? -12.9°
Maximum altitude 17:13:08 15° 276° (W) 1,650 ? -13.2°
Drops below altitude 10° 17:15:30 10° 310° (NW) 1,934 ? -13.5°
Sets 17:18:35 0° 335° (NNW) 2,837 ? -13.9°
